Regional Weather Roundup
Issued by NWS Grand Forks, ND

Home | Current Version | Previous Version | Text Only | Print | Product List | Glossary Off
Versions: 1 2 3 4 5 6 7 8 9 10 11 12 13 14 15 16 17 18 19 20 21 22 23 24 25 26 27 28 29 30 31 32 33 34 35 36 37 38 39 40 41 42 43 44 45 46 47 48 49 50

000
ASUS43 KFGF 230631
RWRFGF
PRAIRIE TO PINES  WEATHER ROUNDUP
NATIONAL WEATHER SERVICE EASTERN NORTH DAKOTA/GRAND FORKS ND
100 AM CDT FRI JUN 23 2017

 **SATELLITE DATA USED TO AUGMENT SKY COVER AT AUTOMATED STATIONS**
 *****  WEATHER ACROSS EASTERN NORTH DAKOTA  *****

CITY           SKY/WX    TMP DP  RH WIND       PRES   REMARKS
GRAND FORKS    FAIR      59  49  69 W12       29.69S
6HR MIN TEMP:  59; 6HR MAX TEMP:  75;

GRAND FRKS AFB FAIR      59  48  67 NW12G18   29.70S
DEVILS LAKE    MOCLDY    59  53  80 W18G28    29.75S
6HR MIN TEMP:  59; 6HR MAX TEMP:  67;

FARGO          FAIR      62  44  51 NW15      29.75R
WAHPETON ARPT  FAIR      54  45  71 W10       29.77R
$$

 ***** WEATHER ACROSS CENTRAL AND WESTERN NORTH DAKOTA  *****

CITY           SKY/WX    TMP DP  RH WIND       PRES   REMARKS
BISMARCK       CLOUDY    60  50  69 NW15G24   29.92R
6HR MIN TEMP:  59; 6HR MAX TEMP:  75; 6HR PCP: TRACE;

MINOT          CLOUDY    57  49  74 NW28G39   29.89R
6HR MIN TEMP:  57; 6HR MAX TEMP:  66;

JAMESTOWN      CLOUDY    60  47  61 W18       29.80S
6HR MIN TEMP:  59; 6HR MAX TEMP:  73;

MINOT AFB      CLOUDY    57  49  75 NW30G39   29.87R
GARRISON         N/A     54  50  86 NW25G38   29.92R
WILLISTON      CLOUDY    54  46  74 NW14      30.04S
6HR MIN TEMP:  54; 6HR MAX TEMP:  65; 6HR PCP: TRACE;

DICKINSON      CLOUDY    53  46  77 NW22G32   30.01R
6HR MIN TEMP:  53; 6HR MAX TEMP:  69;

HETTINGER      CLOUDY    54  44  69 W17       30.06R
6HR MIN TEMP:  52; 6HR MAX TEMP:  72;

$$

 *****  OTHER AIRPORT OBSERVATIONS IN OUR AREA  *****

CITY           SKY/WX    TMP DP  RH WIND       PRES   REMARKS
WALHALLA       NOT AVBL
GRAFTON AIRPOR CLOUDY    59  52  77 W17       29.69S
VALLEY CITY AR FAIR      59  48  67 W16G23    29.79F
CANDO          NOT AVBL
CAVALIER APRT  FAIR      59  52  77 W15G21    29.66S
GWINNER        CLEAR     61  45  55 W16       29.81R
SHEYENNE NWR     N/A     61  42  49 W7        29.95S
ROLLA            N/A     55  55 100 NW29      29.77R
 ***** THE ABOVE OBSERVATIONS ARE NON NWS ARE NOT QUALITY
       CONTROLLED AND MAY MIS-REPORT RAIN FOR SNOW...
$$

  *****  WEATHER ACROSS NORTHERN MINNESOTA  *****

CITY           SKY/WX    TMP DP  RH WIND       PRES   REMARKS
FLAG ISLAND    MOCLDY    57  48  72 W14       29.57S
WARROAD        CLOUDY    57  50  77 W10       29.61F
ROSEAU           N/A     57  50  77 W10G18    29.62F
HALLOCK        FAIR      54  50  87 W8        29.65S
THF RVR FALLS  FAIR      56  46  69 W9        29.69S
6HR MIN TEMP:  55; 6HR MAX TEMP:  70;

BAUDETTE       FAIR      56  47  71 W7        29.61S
6HR MIN TEMP:  56; 6HR MAX TEMP:  69;

WASKISH        FAIR      61  48  63 W16G24    29.64S
CROOKSTON      FAIR      54  46  76 W7        29.71S
GREENBUSH NDAW   N/A     55  48  76 W9          N/A
$$
  *****  WEATHER ACROSS CENTRAL AND WEST MINNESOTA  *****

CITY           SKY/WX    TMP DP  RH WIND       PRES   REMARKS
FOSSTON        FAIR      55  45  67 W12G17    29.71S
BEMIDJI        FAIR      55  42  60 W9        29.68S
PARK RAPIDS    FAIR      51  41  68 W8        29.71S
6HR MIN TEMP:  51; 6HR MAX TEMP:  75;

ELBOW LAKE     FAIR      58  46  65 NW7       29.76S
6HR MIN TEMP:  56; 6HR MAX TEMP:  75;

WADENA         FAIR      55  45  67 SW6       29.72S
DETROIT LAKES  FAIR      61  41  48 NW15G22   29.74S
MOORHEAD       FAIR      61  43  51 NW13      29.76R
FERGUS FALLS   FAIR      57  45  62 W13       29.73S
MORRIS MN      FAIR      59  52  77 W9        29.75F
STAPLES        FAIR      57  43  58 SW7       29.72S
$$
  *****  WEATHER ELSEWHERE ACROSS MINNESOTA  *****

CITY           SKY/WX    TMP DP  RH WIND       PRES   REMARKS
DULUTH         FAIR      53  52  96 W8        29.68S
6HR MIN TEMP:  53; 6HR MAX TEMP:  73; 6HR PCP:  0.14;

INTRNTL FALLS  MOCLDY    56  43  61 W5        29.60S
6HR MIN TEMP:  52; 6HR MAX TEMP:  72; 6HR PCP: TRACE;

ELY            MOCLDY    54  43  66 CALM      29.62F
CLOQUET        FAIR      59  52  77 SW6       29.68F
WHEATON        FAIR      61  45  55 W7        29.79R
BRAINERD       FAIR      57  50  77 SW5       29.71F
6HR MIN TEMP:  55; 6HR MAX TEMP:  75;

HIBBING        MOCLDY    45  44  97 CALM      29.65F
6HR MIN TEMP:  44; 6HR MAX TEMP:  69;

ALEXANDRIA     FAIR      57  49  74 SW8       29.76F
6HR MIN TEMP:  57; 6HR MAX TEMP:  71;

SAINT CLOUD    FAIR      58  55  90 W8        29.74F
6HR MIN TEMP:  58; 6HR MAX TEMP:  73;

MINNEAPOLIS    FAIR      63  58  83 SW5       29.75S
6HR MIN TEMP:  63; 6HR MAX TEMP:  72;

$$

  *****  WEATHER ACROSS SOUTH DAKOTA  *****

CITY           SKY/WX    TMP DP  RH WIND       PRES   REMARKS
SIOUX FALLS    FAIR      56  53  90 CALM      29.85R
6HR MIN TEMP:  55; 6HR MAX TEMP:  73;

BROOKINGS      FAIR      58  51  78 W3        29.85R
WATERTOWN      FAIR      56  53  90 W8        29.83S
6HR MIN TEMP:  56; 6HR MAX TEMP:  71;

HURON          FAIR      56  53  90 W7        29.87R
6HR MIN TEMP:  56; 6HR MAX TEMP:  78; 6HR PCP: TRACE;

SISSETON         N/A     63  43  48 W12       29.78R
ABERDEEN       FAIR      61  39  44 NW15G23   29.85R
6HR MIN TEMP:  52; 6HR MAX TEMP:  79;

MITCHELL       FAIR      61  48  62 W8        29.87R
PIERRE         FAIR      61  42  49 NW16      29.93R
6HR MIN TEMP:  61; 6HR MAX TEMP:  78;

MOBRIDGE       FAIR      62  41  46 NW21      29.92R
RAPID CITY     MOCLDY    59  34  39 N22G33    30.10R
6HR MIN TEMP:  59; 6HR MAX TEMP:  77;

$$

  *****  SOME WEATHER IN NEARBY STATES *****

CITY           SKY/WX    TMP DP  RH WIND       PRES   REMARKS
GLASGOW MT     FAIR      51  43  74 NW9       30.14S
6HR MIN TEMP:  51; 6HR MAX TEMP:  55; 6HR PCP: TRACE;

GREAT FALLS MT FAIR      48  37  65 SE5       30.29S
6HR MIN TEMP:  47; 6HR MAX TEMP:  62;

CHEYENNE WY    LGT RAIN  59  52  77 E14       30.15S
6HR MIN TEMP:  61; 6HR MAX TEMP:  75;

SCOTTSBLUFF NE CLOUDY    67  42  40 NE12      30.07R
6HR MIN TEMP:  67; 6HR MAX TEMP:  78; 6HR PCP: TRACE;

OMAHA NE       CLOUDY    73  61  65 N8        29.83R
6HR MIN TEMP:  73; 6HR MAX TEMP:  89; 6HR PCP: TRACE;

DES MOINES IA  CLOUDY    72  69  90 N10       29.72R
6HR MIN TEMP:  71; 6HR MAX TEMP:  87; 6HR PCP:  0.66;

DAVENPORT IA   FAIR      75  71  87 S15       29.64F
6HR MIN TEMP:  74; 6HR MAX TEMP:  81;

CHICAGO IL     CLOUDY    77  69  76 SW15G23   29.67F
6HR MIN TEMP:  77; 6HR MAX TEMP:  85;

EAU CLAIRE WI  FAIR      63  62  97 SW3       29.71F
6HR MIN TEMP:  62; 6HR MAX TEMP:  68; 6HR PCP:  0.08;

LA CROSSE WI   CLOUDY    69  69 100 CALM      29.71S
6HR MIN TEMP:  69; 6HR MAX TEMP:  70; 6HR PCP:  0.22;

$$

  *****  SOME NATIONAL WEATHER *****

CITY           SKY/WX    TMP DP  RH WIND       PRES   REMARKS
LA GUARDIA NY  CLOUDY    81  71  71 S10       29.86F
6HR MIN TEMP:  76; 6HR MAX TEMP:  82;

RALEIGH NC     LGT RAIN  73  71  93 SW3       30.05F
6HR MIN TEMP:  73; 6HR MAX TEMP:  75; 6HR PCP: TRACE;

ATLANTA GA     CLOUDY    74  72  93 S7        30.04F
6HR MIN TEMP:  74; 6HR MAX TEMP:  75;

NEW ORLEANS LA LGT RAIN  80  78  94 S15       29.87F
6HR MIN TEMP:  80; 6HR MAX TEMP:  83; 6HR PCP:  0.01;

OKLAHOMA CITY  FAIR      73  69  87 SE3       29.76R
6HR MIN TEMP:  73; 6HR MAX TEMP:  89;

ALBUQUERQUE NM FAIR      86  23  10 N8        29.95R
6HR MIN TEMP:  85; 6HR MAX TEMP: 101;

SALT LAKE CITY FAIR      72  48  42 NW7       30.06R
6HR MIN TEMP:  71; 6HR MAX TEMP:  87;

LOS ANGELES CA CLOUDY    65  61  87 W5        29.89R
6HR MIN TEMP:  64; 6HR MAX TEMP:  69;

BOISE ID       FAIR



USA.gov is the U.S. government's official web portal to all federal, state and local government web resources and services.